This is the latest recevied weather packets stored in our database for station/object K7AEL. If no packets are shown the sender has not sent any weather packets the latest 1 day(s).
| Time | Temp. | Humidity | Pressure | Rain* | Wind** | Luminosity | Snow |
|---|---|---|---|---|---|---|---|
| 1778031068 | 22.22° C | 30% | 1011.8 hPa | 0 mm | - | 21 W/m² | - |
| 1778030764 | 22.78° C | 29% | 1011.8 hPa | 0 mm | - | 34 W/m² | - |
| 1778030159 | 22.78° C | 29% | 1011.6 hPa | 0 mm | - | 47 W/m² | - |
| 1778029854 | 22.78° C | 29% | 1011.6 hPa | 0 mm | - | 55 W/m² | - |
| 1778028942 | 22.78° C | 30% | 1011.7 hPa | 0 mm | - | 83 W/m² | - |
| 1778028032 | 23.89° C | 30% | 1011.4 hPa | 0 mm | - | 121 W/m² | - |
| 1778027728 | 23.89° C | 30% | 1011.3 hPa | 0 mm | - | 145 W/m² | - |
| 1778027424 | 23.89° C | 30% | 1011.2 hPa | 0 mm | - | 161 W/m² | - |
| 1778026816 | 24.44° C | 29% | 1011.2 hPa | 0 mm | - | 170 W/m² | - |
| 1778026513 | 24.44° C | 28% | 1011.3 hPa | 0 mm | - | 181 W/m² | - |
| 1778025908 | 25° C | 27% | 1011 hPa | 0 mm | - | 211 W/m² | - |
| 1778024091 | 25.56° C | 27% | 1010.8 hPa | 0 mm | - | 309 W/m² | - |
| 1778023486 | 26.11° C | 26% | 1010.9 hPa | 0 mm | - | 341 W/m² | - |
| 1778023183 | 25.56° C | 25% | 1010.9 hPa | 0 mm | - | 369 W/m² | - |
| 1778022880 | 25.56° C | 27% | 1010.6 hPa | 0 mm | - | 386 W/m² | - |
| 1778022276 | 25.56° C | 28% | 1010.9 hPa | 0 mm | - | 426 W/m² | - |
| 1778021972 | 25.56° C | 29% | 1010.8 hPa | 0 mm | - | 450 W/m² | - |
| 1778021669 | 25° C | 29% | 1010.8 hPa | 0 mm | - | 492 W/m² | - |
| 1778021365 | 25.56° C | 29% | 1010.8 hPa | 0 mm | - | 501 W/m² | - |
| 1778020759 | 25.56° C | 29% | 1011 hPa | 0 mm | - | 519 W/m² | - |
| 1778020456 | 24.44° C | 29% | 1011 hPa | 0 mm | - | 525 W/m² | - |
| 1778019545 | 24.44° C | 31% | 1011.3 hPa | 0 mm | - | 176 W/m² | - |
| 1778018939 | 25° C | 30% | 1011.2 hPa | 0 mm | - | 654 W/m² | - |
| 1778018636 | 25° C | 30% | 1011.3 hPa | 0 mm | - | 205 W/m² | - |
| 1778016822 | 24.44° C | 31% | 1011.6 hPa | 0 mm | - | 211 W/m² | - |
* Rain latest hour (hover to see other rain measurements)
** Current wind speed in m/s (hover to see current wind gust speed)